We konden geen weer-waarchuwingen ophalen. Ga rechtstreeks naar de Meteoalarm site : www.meteoalarm.eu en controleer daar .



Onweer radar Meer informatie blitzortung!


Regen radar Meer informatie rain snow radar


Bezoek onze andere website:

Template documentation
and downloads

And another site



15 daagse weersverwachting Allschwil (CH)

  • Overzicht
  • Per uur
  • 15 dagen
  • Extra
  • Vergelijk
  • Kaarten
  • Dagkaart
  • Meer »
  • Info
  • Statistieken
  • Directe link
    Temp 6h Neerslag Wind  
 06:31     20:36    Daglengte: 14:05 Vandaag
02:00
18°
 
1
08:00
18°
4.4 mm
1
14:00
23°
 
2
20:00
21°
 
2
 06:33     20:35    Daglengte: 14:02 Morgen
02:00
19°
7.5 mm
2
08:00
18°
9.6 mm
3
14:00
24°
 
2
20:00
22°
7.7 mm
2
 06:34     20:33    Daglengte: 13:59 Zaterdag 20 Aug
02:00
17°
 
1
08:00
17°
7.8 mm
2
14:00
21°
25.7 mm
3
20:00
21°
25.8 mm
1
Locatie info
Region: Arlesheim
Latitude: 47.5516°N
Longitude: 7.5381°E
288 masl
Postcode: 4123
Temp/Neerslag /Baro Onweer/Dauwpunt
    Temp Baro 1h Neerslag Dauwpunt Wind UV Bewolking  
 06:31     20:36    Daglengte: 14:05 Vandaag
01:00
19°
1014.2 hPa
49%
16.2°
1
Windvlaag: 4 m/s
67%
02:00
18°
1014.0 hPa
29%
16.3°
1
Windvlaag: 1.3 m/s
83%
03:00
18°
1013.5 hPa 2.2 mm
74%
16.5°
1
Windvlaag: 1.1 m/s
58%
04:00
18°
1013.2 hPa
69%
16.8°
1
Windvlaag: 0.2 m/s
23%
05:00
18°
1013.0 hPa 2.2 mm
74%
16.5°
1
Windvlaag: -0.1 m/s
47%
06:00
18°
1012.7 hPa
80%
16.8°
1
Windvlaag: -0.5 m/s
47%
07:00
17°
1013.1 hPa
79%
17.1°
1
Windvlaag: 0.6 m/s
86%
08:00
18°
1013.0 hPa
80%
17.3°
1
Windvlaag: -0.4 m/s
86%
09:00
18°
1013.1 hPa
28%
16.9°
2
Windvlaag: -0.6 m/s
84%
10:00
19°
1013.4 hPa
26%
17.1°
2
Windvlaag: -0.8 m/s
84%
11:00
20°
1013.6 hPa
78%
15.0°
2
Windvlaag: -1.2 m/s
82%
12:00
21°
1013.3 hPa
69%
12.4°
2
Windvlaag: -2.2 m/s
80%
13:00
22°
1012.9 hPa
26%
11.7°
3
Windvlaag: -3 m/s
81%
14:00
23°
1012.6 hPa
42%
12.5°
2
Windvlaag: -3 m/s
79%
15:00
24°
1012.1 hPa
82%
12.5°
3
Windvlaag: -3.8 m/s
58%
16:00
24°
1011.6 hPa
82%
12.6°
3
Windvlaag: -4.1 m/s
60%
17:00
23°
1011.6 hPa
82%
12.1°
3
Windvlaag: -4.6 m/s
70%
18:00
22°
1011.6 hPa
82%
10.9°
3
Windvlaag: -5.3 m/s
63% warningclass
19:00
22°
1011.9 hPa
82%
10.0°
3
Windvlaag: -5.4 m/s
66% warningclass
20:00
21°
1012.1 hPa
81%
11.7°
2
Windvlaag: -4.1 m/s
72%
21:00
20°
1012.5 hPa
71%
12.9°
2
Windvlaag: -3 m/s
67%
22:00
19°
1012.9 hPa
78%
14.1°
2
Windvlaag: -1.3 m/s
72% warningclass
23:00
19°
1013.3 hPa
78%
14.6°
2
Windvlaag: -0.6 m/s
81% warningclass
 06:33     20:35    Daglengte: 14:02 Morgen
00:00
19°
1013.4 hPa 2.6 mm
79%
14.9°
2
Windvlaag: -0.9 m/s
84% warningclass
01:00
19°
1013.5 hPa 2.4 mm
78%
14.9°
2
Windvlaag: -0.8 m/s
86%
02:00
19°
1013.5 hPa 2.5 mm
80%
14.3°
2
Windvlaag: -0.3 m/s
86%
03:00
19°
1013.4 hPa 2.4 mm
78%
13.9°
2
Windvlaag: 0.5 m/s
85%
04:00
19°
1013.3 hPa 2.2 mm
75%
13.9°
2
Windvlaag: 0.6 m/s
71%
05:00
18°
1013.3 hPa
80%
13.7°
3
Windvlaag: 0.3 m/s
70%
06:00
18°
1013.9 hPa 2.7 mm
82%
13.5°
3
Windvlaag: 0.4 m/s
66%
07:00
18°
1014.4 hPa 2.4 mm
82%
13.3°
3
Windvlaag: 0.5 m/s
84%
08:00
18°
1014.9 hPa
82%
13.6°
3
Windvlaag: 1.2 m/s
86%
09:00
19°
1015.1 hPa
80%
14.0°
3
Windvlaag: 2.2 m/s
24%
10:00
19°
1015.4 hPa
76%
14.4°
3
Windvlaag: 2.4 m/s
47%
11:00
20°
1015.8 hPa
79%
14.7°
3
Windvlaag: 2.2 m/s
46%
12:00
22°
1015.9 hPa
81%
15.1°
3
Windvlaag: 1.5 m/s
20%
13:00
23°
1015.7 hPa
38%
15.7°
3
Windvlaag: 1.2 m/s
17%
14:00
24°
1015.7 hPa
27%
15.8°
2
Windvlaag: -0.8 m/s
27%
15:00
25°
1015.5 hPa
71%
14.7°
2
Windvlaag: 1.5 m/s
15%
16:00
24°
1015.4 hPa
80%
12.2°
3
Windvlaag: 1.2 m/s
37%
17:00
24°
1015.4 hPa 4.1 mm
82%
11.9°
3
Windvlaag: -0.5 m/s
85%
18:00
23°
1015.7 hPa 3.6 mm
78%
10.5°
3
Windvlaag: -0.9 m/s
28%
19:00
23°
1015.9 hPa
75%
11.4°
3
Windvlaag: 1.4 m/s
15%
20:00
22°
1016.2 hPa
22%
12.5°
2
Windvlaag: 0.7 m/s
41%
21:00
21°
1016.8 hPa
20%
12.3°
2
Windvlaag: -1.2 m/s
13%
22:00
21°
1017.1 hPa
14%
11.0°
2
Windvlaag: 3.1 m/s
6%
23:00
19°
1017.5 hPa
21%
11.7°
2
Windvlaag: 3.7 m/s
6%
 06:34     20:33    Daglengte: 13:59 Zaterdag 20 Aug
00:00
18°
1017.6 hPa
22%
10.9°
2
Windvlaag: 3 m/s
8%
01:00
18°
1017.8 hPa
21%
10.6°
2
Windvlaag: 1.7 m/s
11%
02:00
17°
1017.9 hPa
21%
10.7°
1
Windvlaag: 1.5 m/s
19%
03:00
17°
1017.7 hPa
21%
10.0°
1
Windvlaag: 1.9 m/s
30%
04:00
16°
1017.8 hPa
21%
10.0°
1
Windvlaag: 1.7 m/s
20%
05:00
16°
1017.9 hPa
21%
10.5°
1
Windvlaag: 1.3 m/s
23%
06:00
16°
1017.9 hPa
29%
11.1°
1
Windvlaag: 1.9 m/s
40%
07:00
16°
1018.4 hPa 4.0 mm
90%
11.3°
1
Windvlaag: 2.5 m/s
82%
08:00
17°
1019.0 hPa 3.8 mm
100%
12.7°
2
Windvlaag: 7.4 m/s
74%
09:00
18°
1019.3 hPa 3.9 mm
100%
14.4°
2
Windvlaag: 8.8 m/s
94%
10:00
18°
1019.4 hPa 4.3 mm
100%
15.1°
1
Windvlaag: 5.8 m/s
100%
11:00
19°
1019.5 hPa 4.6 mm
100%
15.1°
1
Windvlaag: 3.6 m/s
84% warningclass
12:00
20°
1019.2 hPa 4.4 mm
100%
15.1°
1
Windvlaag: 2.7 m/s
48% warningclass
13:00
21°
1019.1 hPa 4.1 mm
100%
14.8°
2
Windvlaag: 3 m/s
82%
14:00
21°
1018.8 hPa 4.4 mm
100%
14.1°
3
Windvlaag: 2.9 m/s
51%
15:00
21°
1018.8 hPa 4.7 mm
100%
13.6°
3
Windvlaag: 3.9 m/s
50% warningclass
16:00
21°
1018.6 hPa 4.5 mm
100%
13.4°
2
Windvlaag: 4.3 m/s
42% warningclass
17:00
22°
1018.2 hPa 4.2 mm
97%
14.1°
2
Windvlaag: 3.3 m/s
19%
18:00
22°
1018.2 hPa 4.2 mm
97%
14.0°
2
Windvlaag: 2.7 m/s
20%
19:00
21°
1018.2 hPa 4.2 mm
95%
13.5°
1
Windvlaag: 2.4 m/s
18%
20:00
21°
1018.4 hPa 4.1 mm
87%
13.2°
1
Windvlaag: 3.7 m/s
17%
21:00
20°
1018.8 hPa
73%
12.6°
1
Windvlaag: 4.9 m/s
41%
22:00
19°
1019.0 hPa 4.0 mm
82%
12.1°
1
Windvlaag: 5.3 m/s
1%
23:00
18°
1019.1 hPa 4.1 mm
82%
11.9°
1
Windvlaag: 3 m/s
0%
 06:35     20:31    Daglengte: 13:56 Zondag 21 Aug
00:00
17°
1018.9 hPa
81%
11.2°
1
Windvlaag: 2.6 m/s
0%
Temp/Neerslag /Baro Onweer/Dauwpunt
    Temp Baro Neerslag Dauwpunt Wind Bewolking  
 06:31     20:36    Daglengte: 14:05 Vandaag
02:00
18°
1014.0 hPa   16.3°
1
83%
05:00
18°
1013.0 hPa 4.4 mm 16.5°
1
47%
08:00
18°
1013.0 hPa   17.3°
1
86%
11:00
20°
1013.6 hPa   15.0°
2
82%
14:00
23°
1012.6 hPa   12.5°
2
79%
17:00
23°
1011.6 hPa   12.1°
3
70%
20:00
21°
1012.1 hPa   11.7°
2
72%
23:00
19°
1013.3 hPa   14.6°
2
81% warningclass
 06:33     20:35    Daglengte: 14:02 Morgen
02:00
19°
1013.5 hPa 7.5 mm 14.3°
2
86%
05:00
18°
1013.3 hPa 4.6 mm 13.7°
3
70%
08:00
18°
1014.9 hPa 5.1 mm 13.6°
3
86%
11:00
20°
1015.8 hPa   14.7°
3
46%
14:00
24°
1015.7 hPa   15.8°
2
27%
17:00
24°
1015.4 hPa 4.1 mm 11.9°
3
85%
20:00
22°
1016.2 hPa 3.6 mm 12.5°
2
41%
23:00
19°
1017.5 hPa   11.7°
2
6%
 06:34     20:33    Daglengte: 13:59 Zaterdag 20 Aug
02:00
17°
1017.9 hPa   10.7°
1
19%
05:00
16°
1017.9 hPa   10.5°
1
23%
08:00
17°
1019.0 hPa 7.8 mm 12.7°
2
74%
11:00
19°
1019.5 hPa 12.8 mm 15.1°
1
84% warningclass
14:00
21°
1018.8 hPa 12.9 mm 14.1°
3
51%
17:00
22°
1018.2 hPa 13.4 mm 14.1°
2
19%
20:00
21°
1018.4 hPa 12.4 mm 13.2°
1
17%
23:00
18°
1019.1 hPa 8.1 mm 11.9°
1
0%
 06:35     20:31    Daglengte: 13:56 Zondag 21 Aug
02:00
16°
1018.6 hPa   10.1°
1
1%
05:00
15°
1017.0 hPa 41.7 mm 13.6°
1
1%
08:00
16°
1017.2 hPa 41.7 mm 14.6°
1
1%
11:00
21°
1016.7 hPa 41.7 mm 15.2°
1
1%
14:00
24°
1015.3 hPa 41.7 mm 9.8°
3
1%
17:00
25°
1014.6 hPa 41.7 mm 10.2°
2
1%
20:00
20°
1015.2 hPa 41.7 mm 12.5°
1
1%
23:00
18°
1016.4 hPa 41.7 mm 10.2°
0
1%
 06:37     20:29    Daglengte: 13:52 Maandag 22 Aug
02:00
18°
1016.0 hPa 41.7 mm 10.4°
0
1%
05:00
16°
1016.2 hPa 41.7 mm 9.8°
1
1%
08:00
16°
1017.0 hPa 41.7 mm 10.8°
1
0%
11:00
21°
1016.9 hPa 41.7 mm 11.1°
2
1%
14:00
25°
1015.7 hPa 41.7 mm 12.5°
2
0%
17:00
25°
1014.9 hPa 41.7 mm 12.7°
3
1%
20:00
22°
1015.2 hPa 41.7 mm 14.1°
1
1%
23:00
19°
1016.3 hPa 41.7 mm 12.2°
1
1%
 06:38     20:27    Daglengte: 13:49 Dinsdag 23 Aug
02:00
16°
1016.9 hPa 41.7 mm 11.2°
1
0%
05:00
15°
1017.3 hPa 41.7 mm 10.6°
1
0%
08:00
16°
1018.1 hPa 41.7 mm 11.8°
1
0%
11:00
22°
1017.6 hPa 41.7 mm 12.2°
2
0%
14:00
27°
Voelt als: 26.5°
1016.2 hPa 41.7 mm 10.0°
4
0%
17:00
27°
Voelt als: 26.6°
1015.3 hPa 41.7 mm 8.9°
4
0%
20:00
21°
1015.9 hPa 41.7 mm 11.5°
3
0%
23:00
18°
1017.0 hPa 41.7 mm 10.5°
2
1%
 06:39     20:25    Daglengte: 13:46 Woensdag 24 Aug
02:00
16°
1017.0 hPa 41.7 mm 9.7°
1
1%
05:00
14°
1017.0 hPa 41.7 mm 9.4°
1
1%
08:00
16°
1017.8 hPa 41.7 mm 10.2°
1
1%
11:00
22°
1017.2 hPa 41.7 mm 11.0°
2
0%
14:00
27°
Voelt als: 26.5°
1015.8 hPa 41.7 mm 9.5°
4
0%
17:00
28°
Voelt als: 26.9°
1015.0 hPa 41.7 mm 8.9°
3
0%
20:00
22°
1015.7 hPa 41.7 mm 12.3°
2
0%
23:00
18°
1016.9 hPa   11.2°
2
0%
 06:41     20:23    Daglengte: 13:42 Donderdag 25 Aug
02:00
16°
1017.0 hPa 83.4 mm 11.5°
1
0%
08:00
17°
1017.5 hPa 83.4 mm 12.7°
1
0%
14:00
28°
Voelt als: 27.8°
1015.6 hPa 83.4 mm 12.9°
2
0%
20:00
24°
1014.8 hPa 83.4 mm 13.7°
1
0%
 06:42     20:22    Daglengte: 13:40 Vrijdag 26 Aug
02:00
19°
1015.9 hPa 83.4 mm 12.3°
1
0%
08:00
19°
1015.9 hPa 83.4 mm 14.3°
1
1%
14:00
31°
Voelt als: 30.3°
1013.5 hPa 83.4 mm 14.8°
1
0%
20:00
26°
1012.4 hPa 83.4 mm 14.2°
1
1%
 06:43     20:20    Daglengte: 13:37 Zaterdag 27 Aug
02:00
20°
1014.0 hPa 83.6 mm 15.1°
2
1%
08:00
19°
1015.8 hPa 84.6 mm 17.5°
1
1%
14:00
30°
1015.0 hPa 85.8 mm 16.7°
1
1%
20:00
24°
1018.0 hPa 0.3 mm 15.1°
1
53%
 06:45     20:18    Daglengte: 13:33 Zondag 28 Aug
02:00
18°
1019.2 hPa 0.3 mm 14.5°
0
51%
08:00
18°
1019.6 hPa 0.5 mm 15.0°
0
60%
14:00
27°
1018.6 hPa 0.5 mm 15.8°
1
48%
20:00
23°
1018.9 hPa 0.7 mm 15.3°
1
41%
 06:46     20:16    Daglengte: 13:30 Maandag 29 Aug
02:00
18°
1020.0 hPa 0.6 mm 14.6°
0
50%
08:00
18°
1020.2 hPa 0.3 mm 14.8°
0
44%
14:00
28°
1019.1 hPa 0.2 mm 14.9°
1
46%
20:00
23°
1018.9 hPa 0.5 mm 14.6°
1
46%
 06:47     20:14    Daglengte: 13:27 Dinsdag 30 Aug
02:00
18°
1019.9 hPa   13.7°
0
55%
08:00
17°
1019.9 hPa 0.7 mm 13.9°
0
46%
14:00
27°
1018.3 hPa 0.3 mm 14.3°
1
44%
20:00
22°
1018.0 hPa 0.8 mm 14.0°
1
52%
 06:49     20:12    Daglengte: 13:23 Woensdag 31 Aug
02:00
17°
1019.0 hPa 0.8 mm 13.1°
0
41%
08:00
17°
1018.8 hPa 0.2 mm 13.3°
0
46%
14:00
26°
1017.1 hPa 0.5 mm 13.8°
1
47%
20:00
21°
1017.3 hPa 0.7 mm 14.0°
1
44%
 06:50     20:10    Daglengte: 13:20 Donderdag 01 Sep
02:00
17°
1018.7 hPa 0.7 mm 12.5°
0
42%
08:00
16°
1018.9 hPa 0.6 mm 12.6°
0
50%
14:00
26°
1017.5 hPa 0.4 mm 12.4°
1
41%
20:00
21°
1017.7 hPa 0.5 mm 12.5°
0
39%
  CAPE Lifted Index Hail Supercell Tornado SRH 3km CL BTM PRES CL TOP PRES Swiss DWD icon SMHI TS
 06:31     20:36    Daglengte: 14:05 Vandaag
01:00 1 J/kg -0.2 K 0 % 0 % 0 % 0 m²/s² 0 0 0.25 3
02:00 0 J/kg 0.0 K 0 % 0 % 0 % 0 m²/s² 0 0 0.72 3
03:00 0 J/kg 1.1 K 0 % 0 % 0 % 0 m²/s² 0 0 1.58 80
04:00 0 J/kg 0.6 K 0 % 0 % 0 % 0 m²/s² 0 0 1.08 2
05:00 0 J/kg 1.7 K 0 % 0 % 0 % 0 m²/s² 0 0 2.15 80
06:00 0 J/kg 1.9 K 0 % 0 % 0 % 0 m²/s² 0 0 2.8 3
07:00 0 J/kg 2.0 K 0 % 0 % 0 % 0 m²/s² 0 0 3.38 80
08:00 2 J/kg 1.7 K 0 % 0 % 0 % 0 m²/s² 0 0 3.08 3
09:00 31 J/kg 1.6 K 0 % 0 % 0 % 0 m²/s² 0 0 3.52 3
10:00 26 J/kg 1.5 K 0 % 0 % 0 % 0 m²/s² 0 0 3.12 3
11:00 22 J/kg 1.9 K 0 % 0 % 0 % 0 m²/s² 0 0 3.76 80
12:00 46 J/kg 0.7 K 0 % 0 % 0 % 0 m²/s² 0 0 2.8 3
13:00 53 J/kg 0.1 K 0 % 0 % 0 % 0 m²/s² 0 0 3.22 3
14:00 103 J/kg 0.2 K 0 % 0 % 0 % 0 m²/s² 0 0 3.59 3
15:00 99 J/kg 0.8 K 0 % 0 % 0 % 0 m²/s² 0 0 4.19 3
16:00 69 J/kg 0.5 K 0 % 0 % 0 % 0 m²/s² 0 0 3.71 3
17:00 24 J/kg 0.2 K 0 % 0 % 0 % 0 m²/s² 0 0 2.54 3
18:00 24 J/kg -0.4 K 0 % 0 % 0 % 0 m²/s² 0 0 1.55 95
19:00 61 J/kg 0.1 K 0 % 0 % 0 % 0 m²/s² 0 0 1.54 95
20:00 42 J/kg 0.6 K 0 % 0 % 0 % 0 m²/s² 0 0 2.22 80
21:00 0 J/kg 1.1 K 0 % 0 % 0 % 0 m²/s² 0 0 3.02 3
22:00 8 J/kg 0.7 K 0 % 0 % 0 % 0 m²/s² 0 0 2.56 95
23:00 24 J/kg 0.4 K 0 % 0 % 0 % 0 m²/s² 0 0 2.08 95
 06:33     20:35    Daglengte: 14:02 Morgen
00:00 10 J/kg 0.3 K 0 % 0 % 0 % 0 m²/s² 0 0 1.98 95
01:00 36 J/kg 0.9 K 0 % 0 % 0 % 0 m²/s² 0 0 2.52 80
02:00 3 J/kg 1.2 K 0 % 0 % 0 % 0 m²/s² 0 0 2.64 80
03:00 0 J/kg 1.5 K 0 % 0 % 0 % 0 m²/s² 0 0 2.82 80
04:00 0 J/kg 1.7 K 0 % 0 % 0 % 0 m²/s² 0 0 2.72 3
05:00 0 J/kg 1.8 K 0 % 0 % 0 % 0 m²/s² 0 0 2.37 3
06:00 0 J/kg 2.3 K 0 % 0 % 0 % 0 m²/s² 0 0 3.26 80
07:00 0 J/kg 2.0 K 0 % 0 % 0 % 0 m²/s² 0 0 3.05 3
08:00 0 J/kg 1.1 K 0 % 0 % 0 % 0 m²/s² 0 0 2.06 80
09:00 10 J/kg 1.0 K 0 % 0 % 0 % 0 m²/s² 0 0 1.87 80
10:00 80 J/kg 1.0 K 0 % 0 % 0 % 0 m²/s² 0 0 1.96 80
11:00 115 J/kg 0.4 K 0 % 0 % 0 % 0 m²/s² 0 0 1.45 3
12:00 187 J/kg -0.2 K 0 % 0 % 0 % 0 m²/s² 0 0 0.85 2
13:00 222 J/kg -0.3 K 0 % 0 % 0 % 0 m²/s² 0 0 0.18 2
14:00 226 J/kg -0.4 K 0 % 0 % 0 % 0 m²/s² 0 0 0.32 2
15:00 416 J/kg -1.4 K 0 % 0 % 0 % 0 m²/s² 0 0 -0.29 2
16:00 289 J/kg -0.8 K 0 % 0 % 0 % 0 m²/s² 0 0 0.58 2
17:00 88 J/kg 0.8 K 0 % 0 % 0 % 0 m²/s² 0 0 2.36 80
18:00 55 J/kg 1.5 K 0 % 0 % 0 % 0 m²/s² 0 0 2.97 61
19:00 61 J/kg 1.5 K 0 % 0 % 0 % 0 m²/s² 0 0 4.08 3
20:00 40 J/kg 2.1 K 0 % 0 % 0 % 0 m²/s² 0 0 5.19 3
21:00 2 J/kg 2.0 K 0 % 0 % 0 % 0 m²/s² 0 0 5.18 2
22:00 0 J/kg 2.2 K 0 % 0 % 0 % 0 m²/s² 0 0 5.11 1
23:00 0 J/kg 2.0 K 0 % 0 % 0 % 0 m²/s² 0 0 4.16 2
 06:34     20:33    Daglengte: 13:59 Zaterdag 20 Aug
00:00 0 J/kg 1.7 K 0 % 0 % 0 % 0 m²/s² 0 0 3.68 2
01:00 0 J/kg 1.5 K 0 % 0 % 0 % 0 m²/s² 0 0 3.75 2
02:00 0 J/kg 1.3 K 0 % 0 % 0 % 0 m²/s² 0 0 3.16 0
03:00 0 J/kg 1.4 K 0 % 0 % 0 % 0 m²/s² 0 0 2.96 0
04:00 0 J/kg 1.4 K 0 % 0 % 0 % 0 m²/s² 0 0 2.9 0
05:00 0 J/kg 1.1 K 0 % 0 % 0 % 0 m²/s² 0 0 2.42 2
06:00 0 J/kg 0.9 K 0 % 0 % 0 % 0 m²/s² 0 0 1.86 2
07:00 0 J/kg 0.4 K 0 % 0 % 0 % 0 m²/s² 0 0 1.03 61
08:00 0 J/kg 0.0 K 0 % 0 % 0 % 0 m²/s² 0 0 0.48 80
09:00 0 J/kg -0.1 K 0 % 0 % 0 % 0 m²/s² 0 0 0.44 80
10:00 1 J/kg -0.3 K 0 % 0 % 0 % 0 m²/s² 0 0 -0.21 80
11:00 0 J/kg -0.1 K 0 % 0 % 0 % 0 m²/s² 0 0 0.11 95
12:00 57 J/kg 0.1 K 0 % 0 % 0 % 0 m²/s² 0 0 0.76 95
13:00 219 J/kg -0.7 K 0 % 0 % 0 % 0 m²/s² 0 0 1.01 3
14:00 469 J/kg -1.5 K 0 % 0 % 0 % 0 m²/s² 0 0 1.65 80
15:00 708 J/kg -2.4 K 0 % 0 % 0 % 0 m²/s² 0 0 1.5 95
16:00 833 J/kg -2.9 K 0 % 0 % 0 % 0 m²/s² 0 0 0.52 95
17:00 835 J/kg -2.9 K 0 % 0 % 0 % 0 m²/s² 0 0 0.91 80
18:00 757 J/kg -2.9 K 0 % 0 % 0 % 0 m²/s² 0 0 1.54 80
19:00 613 J/kg -2.4 K 0 % 0 % 0 % 0 m²/s² 0 0 2.28 80
20:00 306 J/kg -1.2 K 0 % 0 % 0 % 0 m²/s² 0 0 4.89 80
21:00 11 J/kg 0.3 K 0 % 0 % 0 % 0 m²/s² 0 0 6.75 3
22:00 0 J/kg 2.0 K 0 % 0 % 0 % 0 m²/s² 0 0 8.66 2
23:00 0 J/kg 3.2 K 0 % 0 % 0 % 0 m²/s² 0 0 9.47 80
 06:35     20:31    Daglengte: 13:56 Zondag 21 Aug
00:00 0 J/kg 4.6 K 0 % 0 % 0 % 0 m²/s² 0 0 10.69 2
Temp Baro Wind Neerslag
  EWN Forecast EWN WRFDA DWD ICON FMI HIRLAM MET Norway GFS
 06:31     20:36    Daglengte: 14:05 Vandaag
02:00 18.2° 1014.0 hPa 0.6 m/s 0.0 mm 16.3° 1012.5 hPa 0.2 m/s 19.9 mm 19.5° 1013.0 hPa 0.3 m/s -1.4 mm 18.2° 1014.8 hPa 0.6 m/s 0.0 mm 18.0° 1014.2 hPa 0.9 m/s
05:00 17.7° 1013.0 hPa 0.6 m/s 4.4 mm 15.8° 1011.3 hPa 1.2 m/s 30.1 mm 18.2° 1012.5 hPa 0.4 m/s 0.8 mm 16.7° 1014.5 hPa 0.8 m/s 0.0 mm 17.4° 1013.7 hPa 1.4 m/s
08:00 17.9° 1013.0 hPa 1.0 m/s 0.0 mm 17.2° 1011.5 hPa 1.2 m/s 30.3 mm 18.4° 1013.0 hPa 0.9 m/s 0.7 mm 16.5° 1014.4 hPa 0.5 m/s 0.0 mm 16.6° 1014.3 hPa 1.3 m/s
11:00 19.7° 1013.6 hPa 1.9 m/s 0.0 mm 18.5° 1012.7 hPa 2.5 m/s 30.7 mm 19.5° 1013.8 hPa 1.4 m/s 0.5 mm 21.9° 1013.7 hPa 1.8 m/s 0.0 mm 19.4° 1014.1 hPa 1.5 m/s
14:00 22.9° 1012.6 hPa 2.4 m/s 0.0 mm 22.2° 1010.8 hPa 5.1 m/s 30.9 mm 22.6° 1012.4 hPa 1.6 m/s 0.0 mm 26.1° 1012.8 hPa 2.2 m/s 0.0 mm 18.8° 1013.7 hPa 2.3 m/s
17:00 23.4° 1011.6 hPa 2.9 m/s 0.0 mm 22.4° 1009.5 hPa 5.3 m/s 30.9 mm 22.9° 1011.9 hPa 2.3 m/s 0.3 mm 27.5° 1011.0 hPa 2.5 m/s 0.0 mm 20.5° 1012.9 hPa 2.6 m/s
20:00 20.8° 1012.1 hPa 2.5 m/s 0.0 mm 21.3° 1009.3 hPa 4.7 m/s 30.9 mm 20.2° 1012.5 hPa 2.3 m/s 4.1 mm 25.0° 1011.2 hPa 1.4 m/s 0.0 mm 19.2° 1012.9 hPa 1.9 m/s
23:00 18.9° 1013.3 hPa 1.7 m/s 0.0 mm 18.4° 1010.4 hPa 2.1 m/s 30.9 mm 18.9° 1013.6 hPa 1.5 m/s 2.4 mm 20.3° 1012.7 hPa 1.2 m/s 0.0 mm 17.7° 1013.2 hPa 1.4 m/s
 06:33     20:35    Daglengte: 14:02 Morgen
02:00 18.5° 1013.5 hPa 2.3 m/s 7.5 mm 18.3° 1010.6 hPa 2.4 m/s 31.0 mm 18.4° 1014.0 hPa 1.5 m/s 1.9 mm 19.8° 1012.5 hPa 2.4 m/s 0.0 mm 17.2° 1013.7 hPa 0.7 m/s
05:00 18.3° 1013.3 hPa 2.7 m/s 4.6 mm 18.2° 1010.7 hPa 3.2 m/s 31.1 mm 18.3° 1013.8 hPa 1.1 m/s 1.0 mm 18.9° 1012.5 hPa 3.4 m/s 0.0 mm 16.5° 1013.4 hPa 1.6 m/s
08:00 18.3° 1014.9 hPa 2.9 m/s 5.1 mm 18.5° 1011.7 hPa 3.4 m/s 31.1 mm 18.3° 1015.6 hPa 1.8 m/s 2.3 mm 18.7° 1013.7 hPa 4.7 m/s 0.0 mm 16.6° 1014.9 hPa 1.2 m/s
11:00 20.4° 1015.8 hPa 2.6 m/s 0.0 mm 22.3° 1012.7 hPa 5.7 m/s 31.1 mm 20.7° 1016.5 hPa 1.9 m/s 0.7 mm 20.0° 1014.7 hPa 4.7 m/s 0.0 mm 19.6° 1015.8 hPa 1.9 m/s
14:00 23.7° 1015.7 hPa 2.2 m/s 0.0 mm 21.9° 1013.4 hPa 3.2 m/s 31.5 mm 24.2° 1016.4 hPa 2.0 m/s 0.0 mm 24.0° 1014.4 hPa 4.5 m/s 0.0 mm 22.9° 1015.1 hPa 1.2 m/s
17:00 24.1° 1015.4 hPa 2.7 m/s 4.1 mm 26.4° 1013.0 hPa 3.6 m/s 32.5 mm 21.2° 1016.6 hPa 2.3 m/s 5.5 mm 26.6° 1013.7 hPa 4.3 m/s 0.0 mm 24.4° 1015.0 hPa 1.0 m/s
20:00 22.2° 1016.2 hPa 2.0 m/s 3.6 mm 24.1° 1013.8 hPa 3.0 m/s 32.7 mm 21.6° 1016.9 hPa 2.0 m/s 0.6 mm 25.0° 1014.5 hPa 2.4 m/s 0.0 mm 18.9° 1016.3 hPa 2.0 m/s
23:00 19.1° 1017.5 hPa 1.8 m/s 0.0 mm 19.8° 1015.6 hPa 4.1 m/s 32.7 mm 19.1° 1017.9 hPa 1.2 m/s 0.0 mm 17.6° 1017.5 hPa 1.9 m/s
 06:34     20:33    Daglengte: 13:59 Zaterdag 20 Aug
02:00 17.0° 1017.9 hPa 1.3 m/s 0.0 mm 17.6° 1015.9 hPa 3.0 m/s 32.7 mm 17.0° 1018.2 hPa 1.1 m/s 0.0 mm 16.3° 1017.4 hPa 1.9 m/s
05:00 15.9° 1017.9 hPa 1.1 m/s 0.0 mm 16.3° 1015.7 hPa 2.9 m/s 32.7 mm 15.5° 1018.2 hPa 1.0 m/s 0.0 mm 15.4° 1017.4 hPa 1.6 m/s
08:00 16.9° 1019.0 hPa 1.9 m/s 7.8 mm 18.0° 1017.5 hPa 4.6 m/s 32.7 mm 16.7° 1019.4 hPa 1.3 m/s 0.8 mm 17.1° 1017.8 hPa 1.1 m/s
11:00 19.0° 1019.5 hPa 1.1 m/s 12.8 mm 18.7° 1018.8 hPa 2.4 m/s 34.0 mm 19.1° 1019.6 hPa 0.8 m/s 2.2 mm 20.4° 1018.3 hPa 3.5 m/s
14:00 21.4° 1018.8 hPa 2.5 m/s 12.9 mm 22.6° 1017.5 hPa 1.7 m/s 34.4 mm 21.1° 1019.2 hPa 2.7 m/s 2.1 mm 19.6° 1018.6 hPa 0.3 m/s
17:00 21.9° 1018.2 hPa 2.0 m/s 13.4 mm 23.6° 1016.4 hPa 1.8 m/s 34.5 mm 21.4° 1018.6 hPa 2.0 m/s 2.9 mm 22.7° 1017.3 hPa 2.4 m/s
20:00 20.9° 1018.4 hPa 0.5 m/s 12.4 mm 22.7° 1016.2 hPa 1.1 m/s 35.2 mm 20.5° 1019.0 hPa 0.4 m/s 1.0 mm 18.9° 1018.0 hPa 1.8 m/s
23:00 17.8° 1019.1 hPa 1.4 m/s 8.1 mm 17.1° 1016.8 hPa 2.6 m/s 35.4 mm 18.0° 1019.6 hPa 1.1 m/s 0.3 mm 16.3° 1019.0 hPa 1.5 m/s
 06:35     20:31    Daglengte: 13:56 Zondag 21 Aug
02:00 16.2° 1018.6 hPa 1.4 m/s 0.0 mm 15.3° 1016.6 hPa 2.8 m/s 35.4 mm 16.4° 1019.1 hPa 1.0 m/s 0.1 mm 15.4° 1018.3 hPa 1.3 m/s
05:00 14.8° 1017.0 hPa 1.3 m/s 41.7 mm 14.8° 1017.0 hPa 1.3 m/s 41.7 mm
08:00 16.0° 1017.2 hPa 0.6 m/s 41.7 mm 16.0° 1017.2 hPa 0.6 m/s 41.7 mm
11:00 21.2° 1016.7 hPa 1.2 m/s 41.7 mm 21.2° 1016.7 hPa 1.2 m/s 41.7 mm
14:00 24.3° 1015.3 hPa 2.7 m/s 41.7 mm 24.3° 1015.3 hPa 2.7 m/s 41.7 mm
17:00 24.8° 1014.6 hPa 1.9 m/s 41.7 mm 24.8° 1014.6 hPa 1.9 m/s 41.7 mm
20:00 20.5° 1015.2 hPa 1.4 m/s 41.7 mm 20.5° 1015.2 hPa 1.4 m/s 41.7 mm
23:00 18.0° 1016.4 hPa 0.5 m/s 41.7 mm 18.0° 1016.4 hPa 0.5 m/s 41.7 mm
 06:37     20:29    Daglengte: 13:52 Maandag 22 Aug
02:00 17.9° 1016.0 hPa 0.5 m/s 41.7 mm 17.9° 1016.0 hPa 0.5 m/s 41.7 mm
05:00 16.1° 1016.2 hPa 0.7 m/s 41.7 mm 16.1° 1016.2 hPa 0.7 m/s 41.7 mm
08:00 16.0° 1017.0 hPa 0.6 m/s 41.7 mm 16.0° 1017.0 hPa 0.6 m/s 41.7 mm
11:00 21.3° 1016.9 hPa 1.7 m/s 41.7 mm 21.3° 1016.9 hPa 1.7 m/s 41.7 mm
14:00 25.3° 1015.7 hPa 2.1 m/s 41.7 mm 25.3° 1015.7 hPa 2.1 m/s 41.7 mm
17:00 24.8° 1014.9 hPa 3.0 m/s 41.7 mm 24.8° 1014.9 hPa 3.0 m/s 41.7 mm
20:00 21.8° 1015.2 hPa 1.4 m/s 41.7 mm 21.8° 1015.2 hPa 1.4 m/s 41.7 mm
23:00 19.1° 1016.3 hPa 0.6 m/s 41.7 mm 19.1° 1016.3 hPa 0.6 m/s 41.7 mm
 06:38     20:27    Daglengte: 13:49 Dinsdag 23 Aug
02:00 16.0° 1016.9 hPa 0.7 m/s 41.7 mm 16.0° 1016.9 hPa 0.7 m/s 41.7 mm
05:00 14.7° 1017.3 hPa 1.2 m/s 41.7 mm 14.7° 1017.3 hPa 1.2 m/s 41.7 mm
08:00 16.4° 1018.1 hPa 0.9 m/s 41.7 mm 16.4° 1018.1 hPa 0.9 m/s 41.7 mm
11:00 22.5° 1017.6 hPa 1.9 m/s 41.7 mm 22.5° 1017.6 hPa 1.9 m/s 41.7 mm
14:00 26.8° 1016.2 hPa 3.9 m/s 41.7 mm 26.8° 1016.2 hPa 3.9 m/s 41.7 mm
17:00 27.2° 1015.3 hPa 4.2 m/s 41.7 mm 27.2° 1015.3 hPa 4.2 m/s 41.7 mm
20:00 21.5° 1015.9 hPa 2.5 m/s 41.7 mm 21.5° 1015.9 hPa 2.5 m/s 41.7 mm
23:00 17.8° 1017.0 hPa 1.8 m/s 41.7 mm 17.8° 1017.0 hPa 1.8 m/s 41.7 mm
 06:39     20:25    Daglengte: 13:46 Woensdag 24 Aug
02:00 15.7° 1017.0 hPa 1.1 m/s 41.7 mm 15.7° 1017.0 hPa 1.1 m/s 41.7 mm
05:00 14.3° 1017.0 hPa 1.0 m/s 41.7 mm 14.3° 1017.0 hPa 1.0 m/s 41.7 mm
08:00 15.5° 1017.8 hPa 0.9 m/s 41.7 mm 15.5° 1017.8 hPa 0.9 m/s 41.7 mm
11:00 22.2° 1017.2 hPa 2.3 m/s 41.7 mm 22.2° 1017.2 hPa 2.3 m/s 41.7 mm
14:00 26.8° 1015.8 hPa 3.6 m/s 41.7 mm 26.8° 1015.8 hPa 3.6 m/s 41.7 mm
17:00 27.7° 1015.0 hPa 3.5 m/s 41.7 mm 27.7° 1015.0 hPa 3.5 m/s 41.7 mm
20:00 21.7° 1015.7 hPa 2.2 m/s 41.7 mm 21.7° 1015.7 hPa 2.2 m/s 41.7 mm
23:00 18.1° 1016.9 hPa 1.6 m/s 41.7 mm 18.1° 1016.9 hPa 1.6 m/s 41.7 mm
 06:41     20:23    Daglengte: 13:42 Donderdag 25 Aug
02:00 16.2° 1017.0 hPa 1.1 m/s 41.7 mm 16.2° 1017.0 hPa 1.1 m/s 41.7 mm
08:00 16.7° 1017.5 hPa 1.2 m/s 41.7 mm 16.7° 1017.5 hPa 1.2 m/s 41.7 mm
14:00 28.2° 1015.6 hPa 1.6 m/s 41.7 mm 28.2° 1015.6 hPa 1.6 m/s 41.7 mm
20:00 23.8° 1014.8 hPa 1.4 m/s 41.7 mm 23.8° 1014.8 hPa 1.4 m/s 41.7 mm
 06:42     20:22    Daglengte: 13:40 Vrijdag 26 Aug
02:00 18.7° 1015.9 hPa 1.5 m/s 41.7 mm 18.7° 1015.9 hPa 1.5 m/s 41.7 mm
08:00 18.8° 1015.9 hPa 1.2 m/s 41.7 mm 18.8° 1015.9 hPa 1.2 m/s 41.7 mm
14:00 30.7° 1013.5 hPa 1.3 m/s 41.7 mm 30.7° 1013.5 hPa 1.3 m/s 41.7 mm
20:00 25.7° 1012.4 hPa 1.1 m/s 41.7 mm 25.7° 1012.4 hPa 1.1 m/s 41.7 mm
 06:43     20:20    Daglengte: 13:37 Zaterdag 27 Aug
02:00 20.0° 1014.0 hPa 1.7 m/s 41.8 mm 20.0° 1014.0 hPa 1.7 m/s 41.8 mm
08:00 19.0° 1015.8 hPa 1.3 m/s 42.7 mm 19.0° 1015.8 hPa 1.3 m/s 42.7 mm
14:00 29.9° 1015.0 hPa 0.9 m/s 42.9 mm 29.9° 1015.0 hPa 0.9 m/s 42.9 mm
20:00 23.7° 1018.0 hPa 1.2 m/s 0.3 mm
 06:45     20:18    Daglengte: 13:33 Zondag 28 Aug
02:00 18.4° 1019.2 hPa 0.3 m/s 0.3 mm
08:00 17.9° 1019.6 hPa 0.4 m/s 0.5 mm
14:00 27.4° 1018.6 hPa 1.2 m/s 0.5 mm
20:00 23.1° 1018.9 hPa 0.9 m/s 0.7 mm
 06:46     20:16    Daglengte: 13:30 Maandag 29 Aug
02:00 18.3° 1020.0 hPa 0.5 m/s 0.6 mm
08:00 17.9° 1020.2 hPa 0.5 m/s 0.3 mm
14:00 27.6° 1019.1 hPa 1.0 m/s 0.2 mm
20:00 22.7° 1018.9 hPa 0.8 m/s 0.5 mm
 06:47     20:14    Daglengte: 13:27 Dinsdag 30 Aug
02:00 17.7° 1019.9 hPa 0.3 m/s 0.0 mm
08:00 17.1° 1019.9 hPa 0.3 m/s 0.7 mm
14:00 26.5° 1018.3 hPa 1.0 m/s 0.3 mm
20:00 22.0° 1018.0 hPa 0.8 m/s 0.8 mm
 06:49     20:12    Daglengte: 13:23 Woensdag 31 Aug
02:00 17.2° 1019.0 hPa 0.4 m/s 0.8 mm
08:00 16.7° 1018.8 hPa 0.3 m/s 0.2 mm
14:00 25.9° 1017.1 hPa 1.3 m/s 0.5 mm
20:00 21.3° 1017.3 hPa 0.9 m/s 0.7 mm
 06:50     20:10    Daglengte: 13:20 Donderdag 01 Sep
02:00 16.7° 1018.7 hPa 0.3 m/s 0.7 mm
08:00 15.8° 1018.9 hPa 0.4 m/s 0.6 mm
14:00 25.5° 1017.5 hPa 0.9 m/s 0.4 mm
20:00 20.7° 1017.7 hPa 0.4 m/s 0.5 mm
FMI Hirlam - 7.5 km EWN WRFDA - 12 km DWD ICON - 7 km GFS - 25 km Basiskaart